{"data":{"norad_id":62979,"intl_designator":"2025-030J","name":"HULIANWANG DIGUI-19","alt_names":[],"object_type":"PAYLOAD","status":"ACTIVE","operator":null,"country":"PRC","launch_date":"2025-02-11","launch_site_code":"WSC","launch_vehicle":null,"mission":null,"orbit_class":"UNKNOWN","rcs_meters":null,"size_class":null,"mass_kg":null,"dimensions":null,"purposes":[],"wikipedia_slug":null,"has_3d_model":false,"image_url":null,"decayed_at":null,"tle_current":{"epoch":"2026-05-25T01:18:59.364000Z","epoch_age_seconds":66381,"freshness":"FRESH","line1":"1 62979U 25030J   26145.05485375 -.00000095  00000+0  62355-4 0  9997","line2":"2 62979  50.0061 318.7314 0001185  88.1246 271.9762 13.29318841 62785","mean_motion":13.29318841,"eccentricity":0.0001185,"inclination_deg":50.0061,"raan_deg":318.7314,"arg_perigee_deg":88.1246,"mean_anomaly_deg":271.9762,"bstar":6.2355e-5,"rev_number":6278,"period_min":108.32615589175,"perigee_km":1148.4415924193,"apogee_km":1150.2256029509,"semimajor_km":7527.4705976851,"source":"CELESTRAK","updated_at":"2026-05-25T13:38:03.397469Z"}}}